,,Stat5,,Stat1,,Stat2,,Stat3,,Stat4,,Wind1,,Wind1,
time,status,PA1M_AVG,status,PR1M_SUM,status,RH1M_AVG,status,SR1M_AVG,status,TA1M_AVG,status,W1dAve1m,status,W1sAve1m,
2001-01-11, 00:00:00,VALID,917.615,VALID,0,VALID,97.5422,VALID,0,VALID,19.2246,VALID,119,VALID,0.0116132,
2001-01-11, 00:01:00,VALID,917.624,VALID,0,VALID,97.5499,VALID,0,VALID,19.2114,VALID,119,VALID,0.103618,
2001-01-11, 00:02:00,VALID,917.623,VALID,0,VALID,97.6185,VALID,0,VALID,19.2179,VALID,119,VALID,0,
2001-01-11, 00:03:00,VALID,917.608,VALID,0,VALID,97.4799,VALID,0,VALID,19.2117,VALID,119,VALID,0.0771484,
2001-01-11, 00:04:00,VALID,917.594,VALID,0,VALID,97.2053,VALID,-0.0169808,VALID,19.1563,VALID,108,VALID,0.0185033,
2001-01-11, 00:05:00,VALID,917.588,VALID,0,VALID,96.9662,VALID,0.0169808,VALID,19.0914,VALID,108,VALID,0.0847039,
2001-01-11, 00:06:00,VALID,917.591,VALID,0,VALID,97.0959,VALID,0,VALID,19.0921,VALID,108,VALID,0.00253378,
2001-01-11, 00:07:00,VALID,917.602,VALID,0,VALID,97.2752,VALID,0,VALID,19.1021,VALID,108,VALID,0,
2001-01-11, 00:08:00,VALID,917.616,VALID,0,VALID,97.3693,VALID,-0.0339617,VALID,19.0958,VALID,108,VALID,0.0516827,
2001-01-11, 00:09:00,VALID,917.621,VALID,0,VALID,97.3871,VALID,0,VALID,19.0728,VALID,107,VALID,0.124311,
2001-01-11, 00:10:00,VALID,917.635,VALID,0,VALID,97.6224,VALID,0,VALID,19.0986,VALID,95,VALID,0.389186,
2001-01-11, 00:11:00,VALID,917.624,VALID,0,VALID,97.5461,VALID,0,VALID,19.0919,VALID,96,VALID,0.498311,
2001-01-11, 00:12:00,VALID,917.64,VALID,0,VALID,97.7228,VALID,0,VALID,19.1182,VALID,70,VALID,0.366319,
2001-01-11, 00:13:00,VALID,917.627,VALID,0,VALID,97.8334,VALID,0,VALID,19.1535,VALID,79,VALID,0.415148,
2001-01-11, 00:14:00,VALID,917.623,VALID,0,VALID,97.9085,VALID,-0.0169808,VALID,19.1826,VALID,107,VALID,0.343133,
2001-01-11, 00:15:00,VALID,917.592,VALID,0,VALID,97.9021,VALID,-0.0169808,VALID,19.1793,VALID,104,VALID,0.110609,
2001-01-11, 00:16:00,VALID,917.566,VALID,0,VALID,97.8538,VALID,-0.0169808,VALID,19.189,VALID,104,VALID,0.101345,
2001-01-11, 00:17:00,VALID,917.528,VALID,0,VALID,97.7508,VALID,-0.0169808,VALID,19.1759,VALID,104,VALID,0.0104911,
2001-01-11, 00:18:00,VALID,917.503,VALID,0,VALID,97.6948,VALID,0,VALID,19.1565,VALID,89,VALID,0.403783,
2001-01-11, 00:19:00,VALID,917.471,VALID,0,VALID,97.7889,VALID,0,VALID,19.1664,VALID,114,VALID,0.704728,
2001-01-11, 00:20:00,VALID,917.453,VALID,0,VALID,97.7915,VALID,0,VALID,19.1662,VALID,97,VALID,0.542578,
2001-01-11, 00:21:00,VALID,917.443,VALID,0,VALID,97.6109,VALID,-0.0169808,VALID,19.1272,VALID,90,VALID,0.504317,
2001-01-11, 00:22:00,VALID,917.423,VALID,0,VALID,97.3579,VALID,0.0169808,VALID,19.0658,VALID,88,VALID,0.434211,
2001-01-11, 00:23:00,VALID,917.409,VALID,0,VALID,97.5639,VALID,0,VALID,19.0459,VALID,77,VALID,0.795673,
2001-01-11, 00:24:00,VALID,917.382,VALID,0,VALID,97.7966,VALID,0,VALID,19.0787,VALID,86,VALID,0.478566,
2001-01-11, 00:25:00,VALID,917.374,VALID,0,VALID,97.9275,VALID,0,VALID,19.0979,VALID,61,VALID,0.67488,
2001-01-11, 00:26:00,VALID,917.351,VALID,0,VALID,98.0344,VALID,0,VALID,19.1473,VALID,75,VALID,0.206342,
2001-01-11, 00:27:00,VALID,917.34,VALID,0,VALID,98.0077,VALID,0,VALID,19.1731,VALID,101,VALID,0.524414,
2001-01-11, 00:28:00,VALID,917.313,VALID,0,VALID,97.9072,VALID,0,VALID,19.1597,VALID,98,VALID,0.590929,
2001-01-11, 00:29:00,VALID,917.306,VALID,0,VALID,97.8449,VALID,0,VALID,19.1602,VALID,99,VALID,0.552734,
2001-01-11, 00:30:00,VALID,917.308,VALID,0,VALID,97.8525,VALID,-0.0169808,VALID,19.1461,VALID,103,VALID,0.263514,
2001-01-11, 00:31:00,VALID,917.295,VALID,0,VALID,97.8207,VALID,0,VALID,19.1528,VALID,111,VALID,0.0435855,
2001-01-11, 00:32:00,VALID,917.297,VALID,0,VALID,97.7953,VALID,0,VALID,19.1429,VALID,117,VALID,0.0789931,
2001-01-11, 00:33:00,VALID,917.265,VALID,0,VALID,97.7915,VALID,0,VALID,19.1525,VALID,110,VALID,0,
2001-01-11, 00:34:00,VALID,917.256,VALID,0,VALID,97.733,VALID,0,VALID,19.1597,VALID,97,VALID,0,
2001-01-11, 00:35:00,VALID,917.262,VALID,0,VALID,97.7622,VALID,0,VALID,19.1729,VALID,69,VALID,0,
2001-01-11, 00:36:00,VALID,917.253,VALID,0,VALID,97.8106,VALID,-0.0169808,VALID,19.1856,VALID,64,VALID,0,
2001-01-11, 00:37:00,VALID,917.248,VALID,0,VALID,97.8118,VALID,0,VALID,19.202,VALID,82,VALID,0,
2001-01-11, 00:38:00,VALID,917.253,VALID,0,VALID,97.7788,VALID,0,VALID,19.1982,VALID,87,VALID,0.631055,
2001-01-11, 00:39:00,VALID,917.234,VALID,0,VALID,97.8805,VALID,0,VALID,19.2209,VALID,90,VALID,1.68771,
2001-01-11, 00:40:00,VALID,917.216,VALID,0,VALID,97.8767,VALID,-0.0169808,VALID,19.2467,VALID,92,VALID,1.03315,
2001-01-11, 00:41:00,VALID,917.23,VALID,0,VALID,97.8347,VALID,0,VALID,19.2601,VALID,80,VALID,0.814258,
2001-01-11, 00:42:00,VALID,917.242,VALID,0,VALID,97.8385,VALID,0,VALID,19.2763,VALID,86,VALID,0.903988,
2001-01-11, 00:43:00,VALID,917.243,VALID,0,VALID,97.8462,VALID,0,VALID,19.2728,VALID,83,VALID,1.03013,
2001-01-11, 00:44:00,VALID,917.239,VALID,0,VALID,97.8156,VALID,0,VALID,19.2594,VALID,100,VALID,1.11018,
2001-01-11, 00:45:00,VALID,917.216,VALID,0,VALID,97.7686,VALID,-0.0169808,VALID,19.2633,VALID,101,VALID,1.3572,
2001-01-11, 00:46:00,VALID,917.214,VALID,0,VALID,97.7673,VALID,-0.0169808,VALID,19.28,VALID,91,VALID,1.38239,
2001-01-11, 00:47:00,VALID,917.245,VALID,0,VALID,97.7279,VALID,-0.0169808,VALID,19.3056,VALID,93,VALID,0.929087,
2001-01-11, 00:48:00,VALID,917.248,VALID,0,VALID,97.6643,VALID,0,VALID,19.3083,VALID,94,VALID,0.896176,
2001-01-11, 00:49:00,VALID,917.253,VALID,0,VALID,97.6427,VALID,-0.0169808,VALID,19.3183,VALID,95,VALID,0.654605,
2001-01-11, 00:50:00,VALID,917.237,VALID,0,VALID,97.5906,VALID,-0.0169808,VALID,19.3183,VALID,97,VALID,0.109797,
2001-01-11, 00:51:00,VALID,917.237,VALID,0,VALID,97.5664,VALID,-0.0169808,VALID,19.3143,VALID,97,VALID,0,
2001-01-11, 00:52:00,VALID,917.247,VALID,0,VALID,97.56,VALID,0.0169808,VALID,19.3307,VALID,71,VALID,0.433699,
2001-01-11, 00:53:00,VALID,917.256,VALID,0,VALID,97.5779,VALID,-0.0169808,VALID,19.3498,VALID,80,VALID,0.562706,
2001-01-11, 00:54:00,VALID,917.256,VALID,0,VALID,97.5054,VALID,0,VALID,19.3759,VALID,90,VALID,0.735377,
2001-01-11, 00:55:00,VALID,917.251,VALID,0,VALID,97.3223,VALID,0,VALID,19.366,VALID,95,VALID,0.766426,
2001-01-11, 00:56:00,VALID,917.254,VALID,0,VALID,97.1391,VALID,0,VALID,19.3533,VALID,91,VALID,0.800676,
2001-01-11, 00:57:00,VALID,917.249,VALID,0,VALID,97.2002,VALID,-0.0169808,VALID,19.3434,VALID,74,VALID,0.724507,
2001-01-11, 00:58:00,VALID,917.233,VALID,0,VALID,97.2917,VALID,-0.0169808,VALID,19.3635,VALID,81,VALID,0.469752,
2001-01-11, 00:59:00,VALID,917.226,VALID,0,VALID,97.251,VALID,0,VALID,19.3531,VALID,65,VALID,0.665665,
2001-01-11, 01:00:00,VALID,917.216,VALID,0,VALID,97.2892,VALID,0,VALID,19.3657,VALID,83,VALID,0.523208,
2001-01-11, 01:01:00,VALID,917.206,VALID,0,VALID,97.2816,VALID,0,VALID,19.4149,VALID,94,VALID,0.603618,
2001-01-11, 01:02:00,VALID,917.185,VALID,0,VALID,97.1366,VALID,0,VALID,19.4246,VALID,96,VALID,0.325169,
2001-01-11, 01:03:00,VALID,917.153,VALID,0,VALID,96.9738,VALID,0.0169808,VALID,19.4047,VALID,85,VALID,0.348524,
2001-01-11, 01:04:00,VALID,917.135,VALID,0,VALID,96.9204,VALID,-0.0169808,VALID,19.3859,VALID,298,VALID,0.0442708,
2001-01-11, 01:05:00,VALID,917.149,VALID,0,VALID,97.0794,VALID,0,VALID,19.3791,VALID,293,VALID,0,
2001-01-11, 01:06:00,VALID,917.159,VALID,0,VALID,96.9103,VALID,0.0679233,VALID,19.3523,VALID,339,VALID,0,
2001-01-11, 01:07:00,VALID,917.151,VALID,0,VALID,97.1391,VALID,0.0849042,VALID,19.3456,VALID,35,VALID,0.273655,
2001-01-11, 01:08:00,VALID,917.129,VALID,0,VALID,97.1709,VALID,0.0849042,VALID,19.3514,VALID,94,VALID,0.198884,
2001-01-11, 01:09:00,VALID,917.099,VALID,0,VALID,97.148,VALID,0.101885,VALID,19.3618,VALID,93,VALID,0.214021,
2001-01-11, 01:10:00,VALID,917.091,VALID,0,VALID,97.1442,VALID,0.0849042,VALID,19.365,VALID,79,VALID,0.357772,
2001-01-11, 01:11:00,VALID,917.1,VALID,0,VALID,97.1277,VALID,0.0679233,VALID,19.3685,VALID,74,VALID,0.666406,
2001-01-11, 01:12:00,VALID,917.108,VALID,0,VALID,97.1608,VALID,0.0849042,VALID,19.3745,VALID,84,VALID,0.898438,
2001-01-11, 01:13:00,VALID,917.093,VALID,0,VALID,97.0527,VALID,0.0849042,VALID,19.3814,VALID,97,VALID,0.563322,
2001-01-11, 01:14:00,VALID,917.072,VALID,0,VALID,96.7246,VALID,0.0509425,VALID,19.3424,VALID,90,VALID,0.450721,
2001-01-11, 01:15:00,VALID,917.061,VALID,0,VALID,96.7462,VALID,0.0679233,VALID,19.3002,VALID,93,VALID,0.896835,
2001-01-11, 01:16:00,VALID,917.042,VALID,0,VALID,96.9904,VALID,0.0849042,VALID,19.3329,VALID,92,VALID,1.27965,
2001-01-11, 01:17:00,VALID,917.028,VALID,0,VALID,96.984,VALID,0.0679233,VALID,19.3551,VALID,107,VALID,1.21186,
2001-01-11, 01:18:00,VALID,917.043,VALID,0,VALID,96.8657,VALID,0.0679233,VALID,19.365,VALID,95,VALID,1.1416,
2001-01-11, 01:19:00,VALID,917.045,VALID,0,VALID,96.7399,VALID,0.0679233,VALID,19.3652,VALID,78,VALID,1.02322,
2001-01-11, 01:20:00,VALID,917.038,VALID,0,VALID,96.7856,VALID,0.0679233,VALID,19.3745,VALID,41,VALID,0.380425,
2001-01-11, 01:21:00,VALID,917.051,VALID,0,VALID,96.9115,VALID,-0.0509425,VALID,19.399,VALID,47,VALID,0.214527,
2001-01-11, 01:22:00,VALID,917.045,VALID,0,VALID,96.984,VALID,-0.0509425,VALID,19.4152,VALID,55,VALID,0.211554,
2001-01-11, 01:23:00,VALID,917.027,VALID,0,VALID,96.9344,VALID,-0.0509425,VALID,19.3988,VALID,85,VALID,0.594401,
2001-01-11, 01:24:00,VALID,917.008,VALID,0,VALID,96.9153,VALID,-0.0339617,VALID,19.4092,VALID,86,VALID,0.612331,
2001-01-11, 01:25:00,VALID,917.006,VALID,0,VALID,96.6496,VALID,-0.0509425,VALID,19.3697,VALID,95,VALID,0.532552,
2001-01-11, 01:26:00,VALID,916.987,VALID,0,VALID,96.7081,VALID,-0.0679233,VALID,19.3471,VALID,86,VALID,0.986431,
2001-01-11, 01:27:00,VALID,916.993,VALID,0,VALID,96.9179,VALID,-0.0339617,VALID,19.3635,VALID,90,VALID,0.804476,
2001-01-11, 01:28:00,VALID,917.001,VALID,0,VALID,96.8301,VALID,-0.0169808,VALID,19.3535,VALID,89,VALID,0.425305,
2001-01-11, 01:29:00,VALID,916.992,VALID,0,VALID,96.8238,VALID,-0.0509425,VALID,19.3212,VALID,81,VALID,0.527148,
2001-01-11, 01:30:00,VALID,916.979,VALID,0,VALID,97.148,VALID,-0.0339617,VALID,19.3372,VALID,95,VALID,1.09786,
2001-01-11, 01:31:00,VALID,916.972,VALID,0,VALID,97.2587,VALID,-0.0339617,VALID,19.3888,VALID,92,VALID,1.09459,
2001-01-11, 01:32:00,VALID,916.965,VALID,0,VALID,97.2574,VALID,-0.0169808,VALID,19.4211,VALID,91,VALID,1.07871,
2001-01-11, 01:33:00,VALID,916.954,VALID,0,VALID,97.2282,VALID,-0.0169808,VALID,19.4858,VALID,96,VALID,0.620066,
2001-01-11, 01:34:00,VALID,916.926,VALID,0,VALID,97.1658,VALID,-0.0169808,VALID,19.4987,VALID,102,VALID,0.511161,
2001-01-11, 01:35:00,VALID,916.929,VALID,0,VALID,97.0984,VALID,-0.0169808,VALID,19.5414,VALID,90,VALID,0.0855369,
2001-01-11, 01:36:00,VALID,916.917,VALID,0,VALID,96.9955,VALID,-0.0339617,VALID,19.5409,VALID,88,VALID,0.68316,
2001-01-11, 01:37:00,VALID,916.907,VALID,0,VALID,96.909,VALID,-0.0169808,VALID,19.5605,VALID,89,VALID,0.516047,
2001-01-11, 01:38:00,VALID,916.892,VALID,0,VALID,96.8619,VALID,-0.0339617,VALID,19.5601,VALID,58,VALID,0.101963,
2001-01-11, 01:39:00,VALID,916.897,VALID,0,VALID,96.9789,VALID,-0.0169808,VALID,19.5794,VALID,54,VALID,0.00493421,
2001-01-11, 01:40:00,VALID,916.9,VALID,0,VALID,97.0005,VALID,-0.0679233,VALID,19.5993,VALID,54,VALID,0.120888,
2001-01-11, 01:41:00,VALID,916.895,VALID,0,VALID,96.9865,VALID,-0.0339617,VALID,19.6125,VALID,54,VALID,0,
2001-01-11, 01:42:00,VALID,916.876,VALID,0,VALID,97.0272,VALID,-0.0339617,VALID,19.6115,VALID,126,VALID,0.189019,
2001-01-11, 01:43:00,VALID,916.856,VALID,0,VALID,96.9395,VALID,-0.0339617,VALID,19.6187,VALID,320,VALID,0.341639,
2001-01-11, 01:44:00,VALID,916.833,VALID,0,VALID,96.9357,VALID,-0.0679233,VALID,19.5961,VALID,303,VALID,0.0314556,
2001-01-11, 01:45:00,VALID,916.798,VALID,0,VALID,97.0565,VALID,-0.0679233,VALID,19.6025,VALID,110,VALID,0.689904,
2001-01-11, 01:46:00,VALID,916.777,VALID,0,VALID,97.1163,VALID,-0.0169808,VALID,19.6055,VALID,98,VALID,0.713341,
2001-01-11, 01:47:00,VALID,916.763,VALID,0,VALID,97.0705,VALID,-0.0509425,VALID,19.5829,VALID,98,VALID,0.607264,
2001-01-11, 01:48:00,VALID,916.748,VALID,0,VALID,97.0857,VALID,0,VALID,19.5568,VALID,105,VALID,0.114926,
2001-01-11, 01:49:00,VALID,916.725,VALID,0,VALID,97.1023,VALID,-0.0169808,VALID,19.5506,VALID,105,VALID,0,
2001-01-11, 01:50:00,VALID,916.707,VALID,0,VALID,97.1582,VALID,-0.0339617,VALID,19.5374,VALID,105,VALID,0.0160256,
2001-01-11, 01:51:00,VALID,916.709,VALID,0,VALID,97.2218,VALID,0,VALID,19.5439,VALID,105,VALID,0.0367647,
2001-01-11, 01:52:00,VALID,916.694,VALID,0,VALID,97.2231,VALID,0,VALID,19.5243,VALID,105,VALID,0,
2001-01-11, 01:53:00,VALID,916.681,VALID,0,VALID,97.2332,VALID,0,VALID,19.5076,VALID,103,VALID,0.35663,
2001-01-11, 01:54:00,VALID,916.661,VALID,0,VALID,97.2676,VALID,-0.0169808,VALID,19.4982,VALID,102,VALID,0.807726,
2001-01-11, 01:55:00,VALID,916.615,VALID,0,VALID,97.3579,VALID,0,VALID,19.4758,VALID,99,VALID,0.483724,
2001-01-11, 01:56:00,VALID,916.612,VALID,0,VALID,97.4202,VALID,0,VALID,19.4694,VALID,100,VALID,0.0799753,
2001-01-11, 01:57:00,VALID,916.636,VALID,0,VALID,97.4456,VALID,0,VALID,19.4433,VALID,99,VALID,0.151933,
2001-01-11, 01:58:00,VALID,916.628,VALID,0,VALID,97.4901,VALID,-0.0169808,VALID,19.4368,VALID,98,VALID,0.0894097,
2001-01-11, 01:59:00,VALID,916.6,VALID,0,VALID,97.5639,VALID,0,VALID,19.4244,VALID,97,VALID,0.0125,
2001-01-11, 02:00:00,VALID,916.589,VALID,0,VALID,97.6249,VALID,0,VALID,19.4274,VALID,97,VALID,0,
2001-01-11, 02:01:00,VALID,916.6,VALID,0,VALID,97.6719,VALID,0.0169808,VALID,19.411,VALID,97,VALID,0,
2001-01-11, 02:02:00,VALID,916.624,VALID,0,VALID,97.7114,VALID,-0.0169808,VALID,19.401,VALID,151,VALID,0.00117188,
2001-01-11, 02:03:00,VALID,916.622,VALID,0,VALID,97.7343,VALID,0,VALID,19.3946,VALID,168,VALID,0.150905,
2001-01-11, 02:04:00,VALID,916.595,VALID,0,VALID,97.7165,VALID,0,VALID,19.3814,VALID,101,VALID,0.822368,
2001-01-11, 02:05:00,VALID,916.587,VALID,0,VALID,97.7101,VALID,0,VALID,19.3754,VALID,106,VALID,0.790264,
2001-01-11, 02:06:00,VALID,916.569,VALID,0,VALID,97.7381,VALID,0.0169808,VALID,19.366,VALID,73,VALID,0.440104,
2001-01-11, 02:07:00,VALID,916.565,VALID,0,VALID,97.7724,VALID,0.0509425,VALID,19.326,VALID,119,VALID,0.11238,
2001-01-11, 02:08:00,VALID,916.543,VALID,0,VALID,97.8284,VALID,0.0509425,VALID,19.3262,VALID,224,VALID,0.29136,
2001-01-11, 02:09:00,VALID,916.509,VALID,0,VALID,97.883,VALID,0,VALID,19.3369,VALID,225,VALID,0.13457,
2001-01-11, 02:10:00,VALID,916.494,VALID,0,VALID,97.9479,VALID,0.0339617,VALID,19.3332,VALID,225,VALID,0.131727,
2001-01-11, 02:11:00,VALID,916.478,VALID,0,VALID,97.9771,VALID,0.0679233,VALID,19.3461,VALID,209,VALID,0.03125,
2001-01-11, 02:12:00,VALID,916.444,VALID,0,VALID,98,VALID,0.0339617,VALID,19.3461,VALID,111,VALID,0.710093,
2001-01-11, 02:13:00,VALID,916.404,VALID,0,VALID,98.0585,VALID,0,VALID,19.3454,VALID,94,VALID,1.20333,
2001-01-11, 02:14:00,VALID,916.385,VALID,0,VALID,98.1119,VALID,0,VALID,19.3789,VALID,90,VALID,1.00781,
2001-01-11, 02:15:00,VALID,916.35,VALID,0,VALID,98.1819,VALID,0.0679233,VALID,19.4137,VALID,56,VALID,0.244088,
2001-01-11, 02:16:00,VALID,916.327,VALID,0,VALID,98.1984,VALID,0,VALID,19.4527,VALID,89,VALID,0.106771,
2001-01-11, 02:17:00,VALID,916.299,VALID,0,VALID,98.173,VALID,0.0169808,VALID,19.4723,VALID,122,VALID,0.0361842,
2001-01-11, 02:18:00,VALID,916.271,VALID,0,VALID,98.1297,VALID,0.0169808,VALID,19.4885,VALID,122,VALID,0,
2001-01-11, 02:19:00,VALID,916.282,VALID,0,VALID,98.0712,VALID,0.0169808,VALID,19.4885,VALID,122,VALID,0,
2001-01-11, 02:20:00,VALID,916.314,VALID,0,VALID,98.0115,VALID,0.0849042,VALID,19.4915,VALID,122,VALID,0,
2001-01-11, 02:21:00,VALID,916.308,VALID,0,VALID,97.9517,VALID,0.0339617,VALID,19.485,VALID,126,VALID,0.112253,
2001-01-11, 02:22:00,VALID,916.291,VALID,0,VALID,97.9733,VALID,0,VALID,19.4882,VALID,110,VALID,0.828547,
2001-01-11, 02:23:00,VALID,916.265,VALID,0,VALID,97.9263,VALID,0.0169808,VALID,19.5014,VALID,94,VALID,1.04512,
2001-01-11, 02:24:00,VALID,916.232,VALID,0,VALID,97.9415,VALID,0.0169808,VALID,19.5081,VALID,98,VALID,0.915707,
2001-01-11, 02:25:00,VALID,916.194,VALID,0,VALID,97.911,VALID,0.0169808,VALID,19.524,VALID,86,VALID,0.953795,
2001-01-11, 02:26:00,VALID,916.169,VALID,0,VALID,97.8563,VALID,0,VALID,19.5332,VALID,90,VALID,1.32772,
2001-01-11, 02:27:00,VALID,916.157,VALID,0,VALID,97.8271,VALID,0.0509425,VALID,19.5593,VALID,88,VALID,2.01454,
2001-01-11, 02:28:00,VALID,916.157,VALID,0,VALID,97.8601,VALID,0.0339617,VALID,19.6209,VALID,43,VALID,0.785684,
2001-01-11, 02:29:00,VALID,916.164,VALID,0,VALID,97.7686,VALID,0.0339617,VALID,19.6433,VALID,101,VALID,0.352364,
2001-01-11, 02:30:00,VALID,916.156,VALID,0,VALID,97.6503,VALID,0.0509425,VALID,19.6659,VALID,87,VALID,0.834293,
2001-01-11, 02:31:00,VALID,916.128,VALID,0,VALID,97.5956,VALID,0.0169808,VALID,19.6689,VALID,90,VALID,1.29523,
2001-01-11, 02:32:00,VALID,916.116,VALID,0,VALID,97.541,VALID,0.0169808,VALID,19.6726,VALID,88,VALID,0.860642,
2001-01-11, 02:33:00,VALID,916.096,VALID,0,VALID,97.4558,VALID,0.0169808,VALID,19.6664,VALID,95,VALID,0.878906,
2001-01-11, 02:34:00,VALID,916.085,VALID,0,VALID,97.4011,VALID,0.0339617,VALID,19.6433,VALID,62,VALID,0.437922,
2001-01-11, 02:35:00,VALID,916.063,VALID,0,VALID,97.3858,VALID,0.0509425,VALID,19.6403,VALID,86,VALID,0.246505,
2001-01-11, 02:36:00,VALID,916.051,VALID,0,VALID,97.4214,VALID,-0.101885,VALID,19.6227,VALID,59,VALID,0.0450721,
2001-01-11, 02:37:00,VALID,916.026,VALID,0,VALID,97.4405,VALID,-0.101885,VALID,19.5998,VALID,59,VALID,0,
2001-01-11, 02:38:00,VALID,915.977,VALID,0,VALID,97.5066,VALID,-0.101885,VALID,19.5966,VALID,87,VALID,0.248733,
2001-01-11, 02:39:00,VALID,915.928,VALID,0,VALID,97.6096,VALID,-0.0679233,VALID,19.6095,VALID,90,VALID,0.917969,
2001-01-11, 02:40:00,VALID,915.936,VALID,0,VALID,97.4329,VALID,-0.0679233,VALID,19.5832,VALID,88,VALID,0.41246,
2001-01-11, 02:41:00,VALID,915.942,VALID,0,VALID,97.3744,VALID,-0.0509425,VALID,19.5479,VALID,90,VALID,0.283253,
2001-01-11, 02:42:00,VALID,915.945,VALID,0,VALID,97.4265,VALID,-0.0679233,VALID,19.525,VALID,91,VALID,0.86489,
2001-01-11, 02:43:00,VALID,915.937,VALID,0,VALID,97.5651,VALID,-0.0849042,VALID,19.5128,VALID,92,VALID,1.05715,
2001-01-11, 02:44:00,VALID,915.915,VALID,0,VALID,97.7215,VALID,-0.0849042,VALID,19.5193,VALID,92,VALID,1.02977,
2001-01-11, 02:45:00,VALID,915.91,VALID,0,VALID,97.822,VALID,-0.0849042,VALID,19.5091,VALID,98,VALID,1.26975,
2001-01-11, 02:46:00,VALID,915.887,VALID,0,VALID,97.9046,VALID,-0.0509425,VALID,19.5223,VALID,92,VALID,1.53082,
2001-01-11, 02:47:00,VALID,915.877,VALID,0,VALID,97.9797,VALID,-0.0679233,VALID,19.525,VALID,96,VALID,0.975535,
2001-01-11, 02:48:00,VALID,915.91,VALID,0,VALID,97.9593,VALID,-0.101885,VALID,19.5317,VALID,84,VALID,0.313939,
2001-01-11, 02:49:00,VALID,915.922,VALID,0,VALID,97.9708,VALID,-0.0849042,VALID,19.5282,VALID,92,VALID,0.557726,
2001-01-11, 02:50:00,VALID,915.897,VALID,0,VALID,97.9759,VALID,-0.0509425,VALID,19.522,VALID,88,VALID,1.25156,
2001-01-11, 02:51:00,VALID,915.885,VALID,0,VALID,98.0153,VALID,-0.0679233,VALID,19.5253,VALID,109,VALID,0.660979,
2001-01-11, 02:52:00,VALID,915.901,VALID,0,VALID,98.075,VALID,-0.0509425,VALID,19.5576,VALID,115,VALID,0.0128205,
2001-01-11, 02:53:00,VALID,915.937,VALID,0,VALID,98.1043,VALID,-0.101885,VALID,19.5504,VALID,99,VALID,0.317187,
2001-01-11, 02:54:00,VALID,915.942,VALID,0,VALID,98.1539,VALID,-0.0679233,VALID,19.5769,VALID,97,VALID,0.92722,
2001-01-11, 02:55:00,VALID,915.92,VALID,0,VALID,98.1132,VALID,-0.0849042,VALID,19.5735,VALID,95,VALID,1.19017,
2001-01-11, 02:56:00,VALID,915.897,VALID,0,VALID,98.1742,VALID,-0.0849042,VALID,19.5963,VALID,93,VALID,0.88742,
2001-01-11, 02:57:00,VALID,915.893,VALID,0,VALID,98.1564,VALID,-0.101885,VALID,19.6093,VALID,63,VALID,0.478365,
2001-01-11, 02:58:00,VALID,915.898,VALID,0,VALID,98.1615,VALID,-0.0849042,VALID,19.6416,VALID,82,VALID,0.763622,
2001-01-11, 02:59:00,VALID,915.91,VALID,0,VALID,98.0839,VALID,-0.101885,VALID,19.6418,VALID,97,VALID,0.84375,
2001-01-11, 03:00:00,VALID,915.876,VALID,0,VALID,98.0216,VALID,-0.0849042,VALID,19.6351,VALID,77,VALID,0.874609,
2001-01-11, 03:01:00,VALID,915.849,VALID,0,VALID,98.0191,VALID,-0.101885,VALID,19.6416,VALID,83,VALID,0.490234,
2001-01-11, 03:02:00,VALID,915.859,VALID,0,VALID,97.9835,VALID,-0.101885,VALID,19.6453,VALID,30,VALID,0.716363,
2001-01-11, 03:03:00,VALID,915.868,VALID,0,VALID,98.0356,VALID,-0.0679233,VALID,19.6734,VALID,44,VALID,0.628801,
2001-01-11, 03:04:00,VALID,915.873,VALID,0,VALID,97.9682,VALID,-0.0849042,VALID,19.6997,VALID,55,VALID,0.0777138,
2001-01-11, 03:05:00,VALID,915.848,VALID,0,VALID,97.8296,VALID,-0.0509425,VALID,19.6962,VALID,111,VALID,0.42513,
2001-01-11, 03:06:00,VALID,915.824,VALID,0,VALID,97.7279,VALID,-0.0679233,VALID,19.6803,VALID,87,VALID,0.592272,
2001-01-11, 03:07:00,VALID,915.806,VALID,0,VALID,97.6236,VALID,-0.0509425,VALID,19.645,VALID,92,VALID,0.293403,
2001-01-11, 03:08:00,VALID,915.79,VALID,0,VALID,97.6351,VALID,-0.0679233,VALID,19.6127,VALID,105,VALID,0.225329,
2001-01-11, 03:09:00,VALID,915.779,VALID,0,VALID,97.6427,VALID,-0.0849042,VALID,19.5802,VALID,105,VALID,0,
2001-01-11, 03:10:00,VALID,915.79,VALID,0,VALID,97.6478,VALID,-0.0509425,VALID,19.5476,VALID,105,VALID,0,
2001-01-11, 03:11:00,VALID,915.783,VALID,0,VALID,97.6719,VALID,-0.0509425,VALID,19.522,VALID,105,VALID,0,
2001-01-11, 03:12:00,VALID,915.769,VALID,0,VALID,97.7076,VALID,-0.101885,VALID,19.4962,VALID,105,VALID,0,
2001-01-11, 03:13:00,VALID,915.762,VALID,0,VALID,97.7749,VALID,-0.0849042,VALID,19.4768,VALID,105,VALID,0,
2001-01-11, 03:14:00,VALID,915.76,VALID,0,VALID,97.8347,VALID,-0.0849042,VALID,19.4442,VALID,85,VALID,0.658789,
2001-01-11, 03:15:00,VALID,915.722,VALID,0,VALID,97.9021,VALID,-0.0679233,VALID,19.4249,VALID,86,VALID,0.76398,
2001-01-11, 03:16:00,VALID,915.716,VALID,0,VALID,97.9606,VALID,-0.101885,VALID,19.3993,VALID,100,VALID,0.641071,
2001-01-11, 03:17:00,VALID,915.709,VALID,0,VALID,98.0382,VALID,-0.0679233,VALID,19.396,VALID,111,VALID,0.110978,
2001-01-11, 03:18:00,VALID,915.714,VALID,0,VALID,98.1297,VALID,-0.0849042,VALID,19.3796,VALID,125,VALID,0.242839,
2001-01-11, 03:19:00,VALID,915.714,VALID,0,VALID,98.1908,VALID,-0.0509425,VALID,19.3796,VALID,191,VALID,0.0734797,
2001-01-11, 03:20:00,VALID,915.716,VALID,0,VALID,98.2302,VALID,-0.0679233,VALID,19.3963,VALID,108,VALID,0.632212,
2001-01-11, 03:21:00,VALID,915.703,VALID,0,VALID,98.2518,VALID,-0.0849042,VALID,19.3801,VALID,93,VALID,0.873766,
2001-01-11, 03:22:00,VALID,915.696,VALID,0,VALID,98.2569,VALID,-0.0849042,VALID,19.3543,VALID,101,VALID,0.61616,
2001-01-11, 03:23:00,VALID,915.693,VALID,0,VALID,98.3332,VALID,-0.0509425,VALID,19.3476,VALID,79,VALID,0.449113,
2001-01-11, 03:24:00,VALID,915.685,VALID,0,VALID,98.384,VALID,-0.118866,VALID,19.3506,VALID,78,VALID,0.210286,
2001-01-11, 03:25:00,VALID,915.692,VALID,0,VALID,98.4387,VALID,-0.101885,VALID,19.3804,VALID,81,VALID,0,
2001-01-11, 03:26:00,VALID,915.692,VALID,0,VALID,98.4845,VALID,-0.0509425,VALID,19.393,VALID,91,VALID,0.825658,
2001-01-11, 03:27:00,VALID,915.688,VALID,0,VALID,98.5074,VALID,-0.0509425,VALID,19.4027,VALID,92,VALID,0.882412,
2001-01-11, 03:28:00,VALID,915.687,VALID,0,VALID,98.5328,VALID,-0.0679233,VALID,19.403,VALID,80,VALID,0.79988,
2001-01-11, 03:29:00,VALID,915.691,VALID,0,VALID,98.5646,VALID,-0.0339617,VALID,19.4018,VALID,29,VALID,0.567568,
2001-01-11, 03:30:00,VALID,915.706,VALID,0,VALID,98.585,VALID,-0.0849042,VALID,19.4286,VALID,56,VALID,0.0750411,
2001-01-11, 03:31:00,VALID,915.714,VALID,0,VALID,98.585,VALID,-0.0849042,VALID,19.4251,VALID,108,VALID,0.163462,
2001-01-11, 03:32:00,VALID,915.697,VALID,0,VALID,98.6218,VALID,-0.0849042,VALID,19.4316,VALID,106,VALID,0.877604,
2001-01-11, 03:33:00,VALID,915.685,VALID,0,VALID,98.646,VALID,-0.101885,VALID,19.4542,VALID,86,VALID,0.475414,
2001-01-11, 03:34:00,VALID,915.685,VALID,0,VALID,98.6663,VALID,-0.0509425,VALID,19.4669,VALID,100,VALID,0.602385,